Regional Weather Roundup
Issued by NWS Upton, NY

Current Version | Previous Version | Text Only | Print | Product List | Glossary Off
Versions: 1 2 3 4 5 6 7 8 9 10 11 12 13 14 15 16 17 18 19 20 21 22 23 24 25 26 27
000 ASUS41 KOKX 200109 RWROKX REGIONAL WEATHER ROUNDUP NATIONAL WEATHER SERVICE NEW YORK NY 900 PM EDT TUE SEP 19 2017 NOTE: "FAIR" INDICATES FEW OR NO CLOUDS BELOW 12,000 FEET WITH NO SIGNIFICANT WEATHER AND/OR OBSTRUCTIONS TO VISIBILITY. NYZ071-072-176-178-NJZ106-104-200200- NEW YORK CITY METRO AREA CITY SKY/WX TMP DP RH WIND PRES REMARKS Central Park CLOUDY 70 65 84 NE14G21 29.92R Bronx Bot Gard N/A 68 64 88 SE7 29.89F LaGuardia APRT CLOUDY 72 66 81 NE17G26 29.88R Kennedy INTL CLOUDY 71 65 81 N22G28 29.87S Breezy Point N/A 70 N/A N/A N20G29 N/A Newark/Liberty CLOUDY 71 66 84 N15G24 29.89R Teterboro CLOUDY 71 66 84 N8 29.89R $$ NYZ177-179-078>081-200200- LONG ISLAND NEW YORK CITY SKY/WX TMP DP RH WIND PRES REMARKS Jones Beach N/A 70 N/A N/A NE30 N/A Matinecock PT N/A 72 N/A N/A NE25G31 N/A Farmingdale CLOUDY 69 66 90 NE18G29 29.86S MacArthur/ISP LGT RAIN 69 67 93 N16 29.85R Shirley LGT RAIN 71 68 90 N12G23 29.85S Mt Sinai Harb N/A N/A N/A N/A NE18G25 N/A Westhampton CLOUDY 69 65 86 N18G31 29.85S East Hampton DRIZZLE 67 65 92 N16G24 29.85S Montauk N/A 68 67 96 NE14G24 29.86S $$ NYZ052-065-067-200200- HUDSON VALLEY CITY SKY/WX TMP DP RH WIND PRES REMARKS White Plains CLOUDY 70 64 81 N13G25 29.90S Larchmont Harb N/A 70 N/A N/A N18G24 N/A Croton On Huds N/A 70 N/A N/A N2 N/A Newburgh MOCLDY 73 64 73 NE9 29.97R Montgomery CLOUDY 73 62 68 NE10 29.95R Poughkeepsie CLOUDY 73 62 68 N7 29.94R Albany MOCLDY 69 61 75 N6 30.01R $$ NJZ001-105-106-008-010-013-015-019>022-104-200200- NEW JERSEY CITY SKY/WX TMP DP RH WIND PRES REMARKS Newark/Liberty CLOUDY 71 66 84 N15G24 29.89R Teterboro CLOUDY 71 66 84 N8 29.89R Caldwell CLOUDY 69 67 93 NE3 29.92R Somerville NOT AVBL Linden LGT RAIN 70 65 83 NE7 29.89S Perth Amboy N/A 70 N/A N/A N17G23 N/A Sussex CLOUDY 73 64 73 NE6 29.95R Andover N/A 69 65 86 VRB3 29.95R Trenton LGT RAIN 69 66 90 N13 29.89R Millville CLOUDY 72 68 87 N13G22 29.85S Atlantic City CLOUDY 69 68 96 N15 29.82S FOG Wrightstown LGT RAIN 69 65 89 N13 29.84R Toms River CLOUDY 69 66 90 N15 29.85R Belmar CLOUDY 70 65 84 N20G25 29.86R $$ PAZ047>061-062-071-200200- EASTERN PENNSYLVANIA CITY SKY/WX TMP DP RH WIND PRES REMARKS Philadelphia CLOUDY 75 64 68 N22G32 29.88R Allentown CLOUDY 75 62 64 NE13 29.93R Scranton MOCLDY 71 61 70 E5 29.98R $$ CTZ002-004>006-009-010-012-RIZ004-006-007-MAZ004-011-015-200200- SOUTHERN NEW ENGLAND IN CT CITY SKY/WX TMP DP RH WIND PRES REMARKS Bradley INTL CLOUDY 69 65 86 N13 29.97R Hartford CLOUDY 70 66 87 N14G21 29.94S Danbury MOCLDY 69 65 86 NE8 29.95R Wtrbury/Oxford CLOUDY 68 64 87 NE13G23 29.95S Norwalk Harbor N/A 70 N/A N/A N22 N/A Bridgeport MOCLDY 71 65 81 N20G31 29.88S Meriden CLOUDY 70 64 81 N10G18 29.93S New Haven CLOUDY 70 65 84 N17G23 29.89S Chester CLOUDY 70 64 83 NE10G22 29.91S Groton LGT RAIN 69 65 86 NE18G25 29.87R Wilimantic CLOUDY 69 66 90 NE10 29.94S IN RI CITY SKY/WX TMP DP RH WIND PRES REMARKS Providence CLOUDY 67 66 97 NE17 29.94S Block Island LGT RAIN 66 65 96 NE20G28 29.86S FOG Westerly MOCLDY 69 66 90 NE12G20 29.89S IN MA CITY SKY/WX TMP DP RH WIND PRES REMARKS Boston LGT RAIN 63 63 100 N16 29.99F VSB 1 Worcester FOG 63 62 97 NE14 30.01S VSB 1/4 Westfield CLOUDY 71 65 81 N10 29.99R Provincetown CLOUDY 65 64 97 NE13G18 29.96S Nantucket CLOUDY 67 67 100 NE20G29 29.86S $$ ANZ330-335-338-340-345-350-353-355-200200- COASTAL MARINE OBSERVATIONS STATION/POSITION TIME SKY/WX TEMP WIND PRES VSBY WAVE AIR SEA DIR/SP/G HT/PER (UTC) (F) (DEG/KT/KT) (MB) (MI) (FT/S) NY HARB ENTRANCE 2350 71 70 10/ 25/ 31 1008.5 9/13 20 S FIRE ISLAND 2350 69 68 30/ 25/ 31 1008.0 12/14 GREAT SOUTH BAY 0015 71 72 30/ 19/ 27 N/A 23 SSW MONTAUK P 2350 67 67 1008.5 13/13 15 E BARNEGAT LI 0030 70 N/A 13/12 HUDSON CANYON 2350 69 70 40/ 31/ 39 1003.0 19/13 KINGS POINT 0024 71 71 60/ 12/ 18 1012.6 EXECUTION ROCKS 0045 72 50/ 16/ 21 N/A WESTERN LI SOUND NOT AVBL CENTRAL LI SOUND NOT AVBL EASTERN LI SOUND NOT AVBL ROBBINS REEF 0024 71 360/ 17/ 21 1012.2 $$ >>>>>>>>>>>>>>>>>>>>>>>>>>>> KEY <<<<<<<<<<<<<<<<<<<<<<<<<<< > < > SKY/WX - Sky Condition/Present Weather < > TMP - Temperature in Fahrenheit < > DP - Dew Point in Fahrenheit < > RH - Relative Humidity in Percent < > WIND - Direction (from) and Speed in MPH < > PRES - Mean Sea Level Pressure (inches of Hg) < > WCI - Wind Chill Index < > VSB - VISIBILITY IN MILES < > HX - HEAT INDEX < > TC - TEMPERATURE IN CELSIUS < > VRB - VARIABLE WIND DIRECTION < > < >>>>>>>>>>>>>>>>>>>>>>>>>>>> KEY <<<<<<<<<<<<<<<<<<<<<<<<<<<

USA.gov is the U.S. government's official web portal to all federal, state and local government web resources and services.